Weather History for KMBG - September, 2012

Change the Weather History Date:

Friday, September 28, 2012

  Actual Average Record
Temperature  
Mean Temperature 66 °F 55 °F  
Max Temperature 82 °F 68 °F 88 °F (1995)
Min Temperature 50 °F 42 °F 22 °F (1945)
Cooling Degree Days 1 0  
Month to date cooling degree days 64 60  
Year to date cooling degree days 864 641  
Growing Degree Days 16 (Base 50)    
Moisture  
Dew Point 41 °F    
Average Humidity 49    
Maximum Humidity 77    
Minimum Humidity 20    
Precipitation  
Precipitation 0.00 in 0.05 in 0.43 in (1971)
Month to date precipitation 0.03 1.44  
Year to date precipitation 12.39 15.35  
Sea Level Pressure  
Sea Level Pressure 30.07 in    
Wind  
Wind Speed 9 mph (SE)    
Max Wind Speed 16 mph    
Max Gust Speed 21 mph    
Visibility 10 miles    
Events      
T = Trace of Precipitation, MM = Missing Value Source: NWS Daily Summary

Daily Weather History Graph

Daily Weather History Graph

Search for Another Location

Airport or City:

Trip Planner

Search our weather history database for the weather conditions in past years. The results will help you decide how hot, cold, wet, or windy it might be!

Date:

Astronomy

Sep. 28, 2012 Rise Set
Actual Time 7:36 AM CDT 7:26 PM CDT
Civil Twilight 7:07 AM CDT 7:56 PM CDT
Nautical Twilight 6:32 AM CDT 8:30 PM CDT
Astronomical Twilight 5:57 AM CDT 9:05 PM CDT
Moon 6:30 PM CDT (9/28) 6:07 AM CDT (9/28)
Length of Visible Light 12h 48m
Length of Day
11h 49m
Waxing Gibbous, 98% of the Moon is Illuminated
Sep 28
Waxing Gibbous
Sep 29
Full
Oct 8
Last Quarter
Oct 15
New
Oct 21
First Quarter

Hourly Weather History & Observations

Time (CDT) Temp. Dew Point Humidity Pressure Visibility Wind Dir Wind Speed Gust Speed Precip Events Conditions
12:52 AM 63.0 °F 42.1 °F 46% 30.08 in 10.0 mi SSE 8.1 mph - N/A   Clear
1:52 AM 61.0 °F 43.0 °F 52% 30.07 in 10.0 mi SSE 9.2 mph - N/A   Partly Cloudy
2:52 AM 61.0 °F 43.0 °F 52% 30.07 in 10.0 mi SSE 12.7 mph - N/A   Overcast
3:52 AM 55.0 °F 45.0 °F 69% 30.08 in 10.0 mi SE 6.9 mph - N/A   Clear
4:52 AM 55.0 °F 44.1 °F 67% 30.08 in 10.0 mi SE 8.1 mph - N/A   Clear
5:52 AM 55.0 °F 43.0 °F 64% 30.08 in 10.0 mi SSE 9.2 mph - N/A   Clear
6:52 AM 51.1 °F 45.0 °F 80% 30.09 in 10.0 mi ESE 8.1 mph - N/A   Clear
7:52 AM 50.0 °F 43.0 °F 77% 30.11 in 10.0 mi ESE 5.8 mph - N/A   Clear
8:52 AM 55.0 °F 46.0 °F 72% 30.12 in 10.0 mi SE 4.6 mph - N/A   Clear
9:52 AM 60.1 °F 45.0 °F 57% 30.13 in 10.0 mi SE 6.9 mph - N/A   Clear
10:52 AM 64.9 °F 45.0 °F 48% 30.13 in 10.0 mi SSE 5.8 mph - N/A   Clear
11:52 AM 73.0 °F 44.1 °F 35% 30.11 in 10.0 mi SSE 8.1 mph - N/A   Clear
12:52 PM 78.1 °F 43.0 °F 29% 30.10 in 10.0 mi South 11.5 mph - N/A   Clear
1:52 PM 81.0 °F 39.0 °F 22% 30.07 in 10.0 mi SSE 12.7 mph - N/A   Clear
2:52 PM 81.0 °F 37.0 °F 21% 30.05 in 10.0 mi SE 10.4 mph - N/A   Clear
3:52 PM 81.0 °F 36.0 °F 20% 30.04 in 10.0 mi South 12.7 mph - N/A   Clear
4:52 PM 81.0 °F 36.0 °F 20% 30.02 in 10.0 mi South 10.4 mph - N/A   Clear
5:52 PM 80.1 °F 36.0 °F 20% 30.01 in 10.0 mi SSE 12.7 mph - N/A   Clear
6:52 PM 75.0 °F 37.9 °F 26% 30.03 in 10.0 mi SSE 6.9 mph - N/A   Clear
7:52 PM 64.0 °F 41.0 °F 43% 30.04 in 10.0 mi ESE 9.2 mph - N/A   Clear
8:52 PM 60.1 °F 37.9 °F 44% 30.05 in 10.0 mi SE 8.1 mph - N/A   Clear
9:52 PM 57.9 °F 37.0 °F 46% 30.05 in 10.0 mi SE 9.2 mph - N/A   Clear
10:52 PM 55.0 °F 37.9 °F 53% 30.06 in 10.0 mi SE 9.2 mph - N/A   Clear
11:52 PM 55.9 °F 37.0 °F 49% 30.05 in 10.0 mi SE 10.4 mph - N/A   Clear